Location: Ansan
(43.6898°N, 0.7731°E)
Time: 20:45:40
(UTC+00:00)

Cosmos 1898 Rocket - Pass Details

Date: 15 May 2026
Orbit: 750 x 778 km, 74.0° (Epoch: 8 June)

Event Time Altitude Azimuth Distance (km) Brightness Sun altitude
Rises 22:56:55 0° 340° (NNW) 3,216 8.1 -25.9°
Reaches altitude 10° 22:59:17 10° 341° (NNW) 2,290 7.0 -26.1°
Maximum altitude 23:04:29 83° 70° (ENE) 770 3.4 -26.3°
Enters shadow 23:04:34 83° 90° (E) 771 3.3 -26.3°
